Location: Bushrod
(6.3500°N, 10.7833°W)
Time: 06:52:41
(UTC+00:00)

ASC 2 Rocket - Pass Details

Date: 17 September 2019
Orbit: 555 x 2345 km, 24.0° (Epoch: 15 October)

Event Time Altitude Azimuth Distance (km) Brightness Sun altitude
Rises 20:12:33 0° 254° (WSW) 4,608 8.7 -23.3°
Reaches altitude 10° 20:16:16 10° 258° (WSW) 3,318 7.7 -24.2°
Maximum altitude 20:23:58 55° 334° (NNW) 1,121 4.4 -26.1°
Enters shadow 20:25:35 42° 23° (NNE) 1,222 4.3 -26.5°
